Tracking 20092 objects as of 14-Dec-2019
HD Live streaming from Space Station
objects crossing your sky now

PINA 2A

Track PINA 2A now!
10-day predictions


NORAD ID: 41843
Int'l Code: 2016-066C
Perigee: 492.1 km
Apogee: 512.5 km
Inclination: 97.4 °
Period: 94.5 minutes
Semi major axis: 6873 km
RCS: Unknown
Launch date: November 9, 2016
Source: People's Republic of China (PRC)
Launch site: Jiuquan Satellite Launch Center, China (JSC)
aabbcc
Your satellite tracking list
Your tracking list is empty




NASA's NSSDC Master Catalog

Two Line Element Set (TLE):
1 41843U 16066C   19347.76833616  .00000866  00000-0  39169-4 0  9995
2 41843  97.4060 352.3209 0014850 278.3541 253.7858 15.23534911171764
Source of the keplerian elements: AFSPC